Meteo Giornale » Osservazioni meteo Gran Bretagna » Londra City AP

ore: 02:50 - Osservazioni Meteo Londra City AP
Lat. 51° 30' N Lon. 0° 30' W Alt. 5 metri s.l.m.

sereno Europe/London

15 °C

Sereno

Temp. 24 Ore

13 °C

22 °C

Sud-Ovest

7.4 Km/h

Dew point 11 °C

Umidità 76 %

Visibilità  10 Km

Il sole sorge alle ore 05:01

Il sole tramonta alle ore 21:14

Data e Ora Cielo e Fenomeni T °C DP °C Um. % Pres. hPa Vis. km Vento km/h
Oggi h: 02:50 sereno Sereno 15 11 76 1011 10 SO 7.4
Oggi h: 02:20 sereno Sereno 15 11 76 1011 10 S/SO 7.4
Oggi h: 01:50 sereno Sereno 15 11 76 1012 10 N 5.5
Oggi h: 01:20 sereno Sereno 15 11 76 1012 10 SO 7.4
Oggi h: 00:50 sereno Sereno 16 12 77 1012 10 SO 9.3
Oggi h: 00:20 sereno Sereno 16 12 77 1012 10 SO 9.3
Ieri h: 23:50 sereno Sereno 16 12 77 1012 10 S/SO 11.1
Ieri h: 23:20 sereno Sereno 17 11 67 1012 10 S/SO 9.3
Ieri h: 22:50 sereno Sereno 18 11 63 1012 10 S/SO 9.3
Ieri h: 22:20 sereno Sereno 18 10 59 1012 10 N 5.5
Ieri h: 21:50 sereno Sereno 19 10 55 1012 10 S/SO 9.3
Ieri h: 21:20 sereno Sereno 19 10 55 1012 10 S/SO 11.1
Ieri h: 20:50 sereno Sereno 20 10 52 1011 10 SO 14.8
Ieri h: 20:20 sereno Sereno 21 9 46 1011 10 SO 13
Ieri h: 19:50 sereno Sereno 21 10 49 1011 10 S/SO 14.8
Ieri h: 19:20 sereno Sereno 21 9 46 1011 10 SO 14.8
Ieri h: 18:50 sereno Sereno 22 9 43 1011 10 O/SO 18.5
Ieri h: 18:20 sereno Sereno 22 10 46 1011 10 SO 14.8
Ieri h: 17:50 poco_nuvoloso Poco Nuvoloso 22 10 46 1011 10 SO 14.8
Ieri h: 17:20 sereno Sereno 22 11 49 1011 10 SO 16.7
Ieri h: 16:50 poco_nuvoloso Poco Nuvoloso 22 11 49 1011 10 S/SO 18.5
Ieri h: 16:20 sereno Sereno 21 10 49 1011 10 S/SO 14.8
Ieri h: 15:50 sereno Sereno 21 9 46 1011 10 O 13
Ieri h: 15:20 sereno Sereno 21 9 46 1011 10 O 18.5
Ieri h: 14:50 sereno Sereno 21 9 46 1011 10 O/SO 14.8
Ieri h: 14:20 poco_nuvoloso Poco Nuvoloso 21 11 52 1012 10 SO 13
Ieri h: 13:50 poco_nuvoloso Poco Nuvoloso 21 10 49 1012 10 O/SO 13
Ieri h: 13:20 sereno Sereno 21 10 49 1012 10 O/SO 16.7
Ieri h: 12:50 nuvoloso Nuvoloso 20 10 52 1011 10 O/SO 16.7
Ieri h: 12:20 sereno Sereno 21 10 49 1011 10 O/SO 16.7
Ieri h: 11:50 poco_nuvoloso Poco Nuvoloso 20 10 52 1011 10 O 18.5
Ieri h: 11:20 nuvoloso Nuvoloso 20 10 52 1012 10 O/SO 14.8
Ieri h: 10:50 poco_nuvoloso Poco Nuvoloso 19 10 55 1012 10 O/SO 14.8
Ieri h: 10:20 nuvoloso Nuvoloso 19 11 59 1012 10 O 11.1
Ieri h: 09:50 sereno Sereno 19 11 59 1012 10 O/SO 9.3
Ieri h: 09:20 sereno Sereno 17 11 67 1012 10 SO 7.4
Ieri h: 08:50 sereno Sereno 17 11 67 1012 10 N 5.5
Ieri h: 08:20 sereno Sereno 16 11 72 1012 10 N 5.5
Ieri h: 07:50 sereno Sereno 16 12 77 1012 10 S/SO 7.4
Ieri h: 07:20 sereno Sereno 15 12 82 1012 10 SO 7.4
Ieri h: 06:50 sereno Sereno 14 12 87 1012 10 SO 9.3
Ieri h: 06:20 sereno Sereno 14 11 82 1012 10 S/SO 9.3
Ieri h: 05:50 sereno Sereno 13 11 87 1012 10 N 3.7
Ieri h: 05:20 sereno Sereno 14 11 82 1012 10 N 5.5
Ieri h: 04:50 sereno Sereno 13 11 87 1012 10 O/SO 9.3
Ieri h: 04:20 sereno Sereno 14 11 82 1012 10 SO 11.1
Ieri h: 03:50 sereno Sereno 14 11 82 1012 10 O/SO 11.1